Weather in Yaren District

Nauru     0°32′21″N   166°54′45″E
temp.,
°C
wind,
m/s
gust,
m/s
humid.,
%
clouds,
%
prec.,
mm/h
press.,
hPa
HPBL,
m
21 april, wed
wed2100:00+28ene567813 0.6 1010748
03:00+28ene557730 0.7 1009806
06:00+28ne557993 1.2 1009664
09:00+28ene567836 0.0 1011771
12:00+28ene567980 1.9 1010662
15:00+28ene667696 0.8 1008845
18:00+28ene567661 0.8 1009825
21:00+28ene557792 0.0 1010786
22 april, thu
thu2200:00+28ene457899 0.9 1011624
03:00+27ene4581100 3.4 1008308
06:00+27ene4577100 7.4 1009337
09:00+28ene5572100 0.9 1010646
12:00+28ene557529 2.1 1010554
15:00+28ene347783 4.5 1007394
18:00+28ene457789 6.1 1007585
21:00+27e4480100 3.4 1010317
23 april, fri
fri2300:00+28ene3374100 5.3 1010479
03:00+27ene3378100 2.9 1008284
06:00+28ene447391 3.8 1008741
09:00+27ene447547 0.1 1011519
12:00+28ene3374100 0.4 1010510
15:00+28ene3373100 2.3 1008366
18:00+28ne3372100 3.6 1008405
21:00+28ene2271100 0.9 1010422
24 april, sat
sat2400:00+27ene1174100 1.9 1010119
03:00+27nne1170100 0.3 1008367
06:00+28nne1269100 0.3 1009502
09:00+28nne117066 0.3 1011414
12:00+28nne117068 1.3 1011469
15:00+28n1168100 0.1 1009711
18:00+28nnw226770 0.1 1009803
21:00+28n2269100 0.1 1011574
25 april, sun
sun2500:00+27n2374100 2.3 1011274
03:00+27nnw227576 2.8 1009305
06:00+28nne237117 3.3 1010542
09:00+28nne447169 0.0 1012742
12:00+28nne3470100 0.0 1011807
15:00+28nne3369100 0.0 1009742
18:00+28ne236871 0.0 1009802
21:00+28ene236999 0.0 1011783